Regional Weather Roundup
Issued by NWS

Home | Current Version | Previous Version | Text Only | Print | Product List | Glossary Off
Versions: 1 2 3 4 5 6 7 8 9 10 11 12 13 14 15 16 17 18 19 20 21 22 23 24 25 26 27 28 29 30 31 32 33 34 35 36 37 38 39 40 41 42 43 44 45 46 47 48 49 50

000
ASUS43 KTOP 051008
RWRKS

WEATHER ROUNDUP FOR KANSAS
NATIONAL WEATHER SERVICE GOODLAND KS
400 AM CST THU MAR 05 2015

NOTE:  "FAIR" INDICATES FEW OR NO CLOUDS BELOW 12,000 FEET WITH NO
SIGNIFICANT WEATHER AND/OR OBSTRUCTIONS TO VISIBILITY.

KSZ001>006-013>018-027>032-041>047-051100-
NORTHWEST KANSAS

CITY           SKY/WX    TMP DP  RH WIND       PRES   REMARKS
GOODLAND       CLEAR     14   9  80 W10       30.27F WCI   1
HAYS           PTCLDY    12  -2  52 NE5       30.38F
HILL CITY      CLEAR     10   2  69 E7        30.37F
RUSSELL        CLEAR     11   3  70 E9        30.39F
$$

KSZ061>065-074>080-084>089-051100-
SOUTHWEST KANSAS

CITY           SKY/WX    TMP DP  RH WIND       PRES   REMARKS
DODGE CITY     CLEAR     19  11  70 W9        30.38F
ELKHART          N/A     15   8  73 W7          N/A
GARDEN CITY    CLEAR     15  12  88 W8        30.36F
GREAT BEND     CLEAR     10   1  67 CALM      30.41S
LIBERAL        FAIR      10   1  67 W9        30.40S
PRATT          CLEAR      9   1  72 W7        30.41F
$$

KSZ066>073-081>083-090>101-051100-
SOUTHEAST KANSAS

CITY           SKY/WX    TMP DP  RH WIND       PRES   REMARKS
CHANUTE        CLEAR     18  11  74 N5        30.47R
COFFEYVILLE    CLEAR     19  10  68 NW5       30.48R
HUTCHINSON     CLEAR     10   3  73 CALM      30.44S
MEDICINE LODGE   N/A     11   8  88 N5        30.44F
NEWTON         CLEAR     14   3  62 N5        30.45R
PARSONS        CLEAR     14  11  87 CALM      30.48R
WICHITA INTL   PTCLDY    16   8  71 CALM      30.45S
WICHITA JABRA  CLEAR     16   7  67 NW6       30.45R
WICHITA MCCONL CLEAR     17  10  72 NW3       30.45R
WINFIELD       CLEAR     17  12  80 CALM      30.47S
$$

KSZ007>012-019>026-033>040-048>060-102>105-051100-
NORTHEAST KANSAS

CITY           SKY/WX    TMP DP  RH WIND       PRES   REMARKS
CONCORDIA      CLEAR     10   1  67 E3        30.46S
EMPORIA        CLEAR     14   4  64 N6        30.46R
LAWRENCE       CLEAR     12   2  64 N5        30.50R
MANHATTAN      CLEAR     14   4  64 N3        30.49S
MARYSVILLE     CLEAR      9   1  72 NE5       30.48S
OLATHE IND     CLEAR     11   2  67 N5        30.48R
OLATHE EXE     CLEAR     15   2  56 N7        30.45R
SALINA         CLEAR     13   4  67 N3        30.48R
TOPEKA BILLARD CLEAR     13   2  61 N5        30.51R
TOPEKA FORBES  CLEAR     14   3  61 N6        30.48R
$$



USA.gov is the U.S. government's official web portal to all federal, state and local government web resources and services.